Port Heiden, AK

3:59 PM AKST on January 18, 2017 (GMT -0900)
Port Heiden

Weather History for PAPH - September, 2013

Change the Weather History Date:

Sunday, September 29, 2013

  Actual Average Record
Temperature  
Mean Temperature 40 °F -  
Max Temperature 42 °F 47 °F 59 °F (2016)
Min Temperature 39 °F 38 °F 30 °F (2012)
Degree Days  
Heating Degree Days 24    
Moisture  
Dew Point 23 °F    
Average Humidity 50    
Maximum Humidity 56    
Minimum Humidity 32    
Precipitation  
Precipitation 0.00 in - - ()
Sea Level Pressure  
Sea Level Pressure 29.86 in    
Wind  
Wind Speed 29 mph (NW)    
Max Wind Speed 34 mph    
Max Gust Speed 43 mph    
Visibility 10 miles    
Events      
Averages and records for this station are not official NWS values.
T = Trace of Precipitation, MM = Missing Value Source: NWS Daily Summary

Daily Weather History Graph

Daily Weather History Graph

Search for Another Location

Airport or City:

Trip Planner

Search our weather history database for the weather conditions in past years. The results will help you decide how hot, cold, wet, or windy it might be!

Date:

Astronomy

Sep. 29, 2013 Rise Set
Actual Time 8:34 AM AKDT 8:13 PM AKDT
Civil Twilight 7:56 AM AKDT 8:51 PM AKDT
Nautical Twilight 7:12 AM AKDT 9:35 PM AKDT
Astronomical Twilight 6:25 AM AKDT 10:21 PM AKDT
Moon 2:35 AM AKDT (9/29) 6:01 PM AKDT (9/29)
Length of Visible Light 12h 54m
Length of Day
11h 38m
Waning Crescent, 26% of the Moon is Illuminated
Sep 29
Waning Crescent
Oct 4
New
Oct 11
First Quarter
Oct 18
Full
Oct 26
Last Quarter

Hourly Weather History & Observations

Time (AKDT) Temp. Windchill Dew Point Humidity Pressure Visibility Wind Dir Wind Speed Gust Speed Precip Events Conditions
12:16 AM 42.8 °F 32.9 °F 26.6 °F 53% 29.70 in 10.0 mi NW 26.5 mph 35.7 mph N/A   Scattered Clouds
12:36 AM 42.8 °F 33.1 °F 26.6 °F 53% 29.71 in 10.0 mi NW 25.3 mph 36.8 mph N/A   Scattered Clouds
12:56 AM 42.8 °F 32.5 °F 26.6 °F 53% 29.72 in 10.0 mi NW 28.8 mph 35.7 mph N/A   Mostly Cloudy
1:16 AM 42.8 °F 33.1 °F 26.6 °F 53% 29.72 in 10.0 mi NW 25.3 mph 38.0 mph N/A   Overcast
1:36 AM 42.8 °F 31.9 °F 26.6 °F 53% 29.73 in 10.0 mi NW 32.2 mph 39.1 mph N/A   Overcast
1:56 AM 42.8 °F 33.3 °F 26.6 °F 53% 29.74 in 10.0 mi NW 24.2 mph 39.1 mph N/A   Overcast
2:16 AM 42.8 °F 32.3 °F 26.6 °F 53% 29.74 in 10.0 mi NW 29.9 mph 40.3 mph N/A   Overcast
2:36 AM 42.8 °F 32.5 °F 26.6 °F 53% 29.75 in 10.0 mi NW 28.8 mph 36.8 mph N/A   Mostly Cloudy
2:56 AM 41.0 °F 29.7 °F 24.8 °F 53% 29.76 in 10.0 mi NW 31.1 mph 39.1 mph N/A   Mostly Cloudy
3:16 AM 41.0 °F 29.5 °F 24.8 °F 53% 29.77 in 10.0 mi NW 32.2 mph 39.1 mph N/A   Mostly Cloudy
3:36 AM 39.2 °F 26.6 °F 24.8 °F 56% 29.78 in 10.0 mi NW 34.5 mph 40.3 mph N/A   Scattered Clouds
3:56 AM 39.2 °F 27.2 °F 24.8 °F 56% 29.79 in 10.0 mi NW 31.1 mph 41.4 mph N/A   Mostly Cloudy
4:16 AM 39.2 °F 27.6 °F 23.0 °F 52% 29.80 in 10.0 mi NW 28.8 mph 39.1 mph N/A   Mostly Cloudy
4:36 AM 39.2 °F 27.4 °F 24.8 °F 56% 29.80 in 10.0 mi NW 29.9 mph 39.1 mph N/A   Overcast
4:56 AM 39.2 °F 27.6 °F 23.0 °F 52% 29.81 in 10.0 mi NW 28.8 mph 40.3 mph N/A   Overcast
5:16 AM 39.2 °F 27.4 °F 23.0 °F 52% 29.81 in 10.0 mi NW 29.9 mph 39.1 mph N/A   Overcast
5:36 AM 39.2 °F 27.0 °F 21.2 °F 49% 29.82 in 10.0 mi NW 32.2 mph 39.1 mph N/A   Overcast
5:56 AM 39.2 °F 26.6 °F 21.2 °F 49% 29.81 in 10.0 mi NW 34.5 mph 39.1 mph N/A   Overcast
6:16 AM 39.2 °F 27.4 °F 21.2 °F 49% 29.82 in 10.0 mi NNW 29.9 mph 39.1 mph N/A   Overcast
6:36 AM 39.2 °F 26.8 °F 21.2 °F 49% 29.83 in 10.0 mi NW 33.4 mph 42.6 mph N/A   Overcast
6:56 AM 39.2 °F 27.4 °F 21.2 °F 49% 29.83 in 10.0 mi NW 29.9 mph 38.0 mph N/A   Overcast
7:16 AM 39.2 °F 27.0 °F 21.2 °F 49% 29.84 in 10.0 mi NW 32.2 mph 41.4 mph N/A   Overcast
7:36 AM 39.2 °F 27.6 °F 21.2 °F 49% 29.84 in 10.0 mi NNW 28.8 mph 36.8 mph N/A   Overcast
7:56 AM 39.2 °F 27.2 °F 21.2 °F 49% 29.84 in 10.0 mi NW 31.1 mph 39.1 mph N/A   Overcast
8:16 AM 39.2 °F 28.0 °F 19.4 °F 45% 29.84 in 10.0 mi NW 26.5 mph 38.0 mph N/A   Overcast
8:36 AM 39.2 °F 27.6 °F 21.2 °F 49% 29.85 in 10.0 mi NNW 28.8 mph 36.8 mph N/A   Overcast
8:56 AM 39.2 °F 28.3 °F 21.2 °F 49% 29.86 in 10.0 mi NW 25.3 mph 35.7 mph N/A   Overcast
9:16 AM 39.2 °F 28.0 °F 21.2 °F 49% 29.86 in 10.0 mi NNW 26.5 mph 34.5 mph N/A   Overcast
9:36 AM 39.2 °F 27.6 °F 21.2 °F 49% 29.86 in 10.0 mi NNW 28.8 mph 39.1 mph N/A   Overcast
9:56 AM 39.2 °F 27.8 °F 21.2 °F 49% 29.86 in 10.0 mi NW 27.6 mph 34.5 mph N/A   Overcast
10:16 AM 39.2 °F 26.8 °F 21.2 °F 49% 29.87 in 10.0 mi NNW 33.4 mph 40.3 mph N/A   Overcast
10:36 AM 39.2 °F 27.2 °F 23.0 °F 52% 29.88 in 10.0 mi NW 31.1 mph 38.0 mph N/A   Overcast
10:56 AM 39.2 °F 27.4 °F 21.2 °F 49% 29.89 in 10.0 mi NW 29.9 mph 40.3 mph N/A   Overcast
11:16 AM 39.2 °F 27.2 °F 19.4 °F 45% 29.90 in 10.0 mi NW 31.1 mph 39.1 mph N/A   Overcast
11:36 AM 39.2 °F 27.6 °F 21.2 °F 49% 29.90 in 10.0 mi NW 28.8 mph 36.8 mph N/A   Overcast
11:56 AM 39.2 °F 27.6 °F 19.4 °F 45% 29.90 in 10.0 mi NW 28.8 mph 40.3 mph N/A   Overcast
12:16 PM 39.2 °F 27.6 °F 21.2 °F 49% 29.90 in 10.0 mi NW 28.8 mph 38.0 mph N/A   Overcast
12:36 PM 39.2 °F 27.4 °F 21.2 °F 49% 29.91 in 10.0 mi NW 29.9 mph 41.4 mph N/A   Overcast
12:56 PM 39.2 °F 27.6 °F 19.4 °F 45% 29.90 in 10.0 mi NW 28.8 mph 40.3 mph N/A   Overcast
1:16 PM 39.2 °F 27.2 °F 21.2 °F 49% 29.90 in 10.0 mi NW 31.1 mph 41.4 mph N/A   Overcast
1:36 PM 39.2 °F 28.3 °F 21.2 °F 49% 29.90 in 10.0 mi NW 25.3 mph 34.5 mph N/A   Overcast
1:56 PM 39.2 °F 27.4 °F 19.4 °F 45% 29.90 in 10.0 mi NW 29.9 mph 40.3 mph N/A   Overcast
2:16 PM 39.2 °F 27.4 °F 21.2 °F 49% 29.90 in 10.0 mi NW 29.9 mph 38.0 mph N/A   Overcast
2:36 PM 39.2 °F 27.6 °F 21.2 °F 49% 29.90 in 10.0 mi NW 28.8 mph 36.8 mph N/A   Overcast
2:56 PM 41.0 °F 29.3 °F 23.0 °F 49% 29.90 in 10.0 mi NW 33.4 mph 38.0 mph N/A   Overcast
3:16 PM 41.0 °F 30.0 °F 21.2 °F 45% 29.90 in 10.0 mi NW 28.8 mph 36.8 mph N/A   Overcast
3:36 PM 41.0 °F 29.7 °F 21.2 °F 45% 29.91 in 10.0 mi NW 31.1 mph 40.3 mph N/A   Overcast
3:56 PM 41.0 °F 29.8 °F 21.2 °F 45% 29.90 in 10.0 mi NW 29.9 mph 38.0 mph N/A   Overcast
4:16 PM 41.0 °F 29.8 °F 21.2 °F 45% 29.90 in 10.0 mi NW 29.9 mph 38.0 mph N/A   Overcast
4:36 PM 41.0 °F 30.2 °F 21.2 °F 45% 29.90 in 10.0 mi NW 27.6 mph 34.5 mph N/A   Overcast
4:56 PM 39.2 °F 27.4 °F 23.0 °F 52% 29.91 in 10.0 mi NW 29.9 mph 38.0 mph N/A   Overcast
5:16 PM 39.2 °F 27.2 °F 21.2 °F 49% 29.91 in 10.0 mi NW 31.1 mph 35.7 mph N/A   Overcast
5:36 PM 39.2 °F 27.8 °F 23.0 °F 52% 29.91 in 10.0 mi NW 27.6 mph 33.4 mph N/A   Overcast
5:56 PM 39.2 °F 27.6 °F 23.0 °F 52% 29.91 in 10.0 mi NW 28.8 mph 35.7 mph N/A   Overcast
6:16 PM 39.2 °F 27.2 °F 23.0 °F 52% 29.91 in 10.0 mi NW 31.1 mph 38.0 mph N/A   Overcast
6:36 PM 39.2 °F 29.0 °F 23.0 °F 52% 29.91 in 10.0 mi NW 21.9 mph 33.4 mph N/A   Overcast
6:56 PM 39.2 °F 27.8 °F 23.0 °F 52% 29.91 in 10.0 mi NW 27.6 mph 34.5 mph N/A   Overcast
7:16 PM 39.2 °F 27.6 °F 24.8 °F 56% 29.91 in 10.0 mi NW 28.8 mph 38.0 mph N/A   Overcast
7:36 PM 39.2 °F 28.0 °F 23.0 °F 52% 29.91 in 10.0 mi NW 26.5 mph 36.8 mph N/A   Overcast
7:56 PM 39.2 °F 27.6 °F 24.8 °F 56% 29.92 in 10.0 mi NW 28.8 mph 33.4 mph N/A   Overcast
8:16 PM 39.2 °F 28.7 °F 21.2 °F 49% 29.92 in 10.0 mi NW 23.0 mph 38.0 mph N/A   Overcast
8:36 PM 39.2 °F 28.5 °F 23.0 °F 52% 29.92 in 10.0 mi NW 24.2 mph 33.4 mph N/A   Overcast
8:56 PM 39.2 °F 28.0 °F 24.8 °F 56% 29.93 in 10.0 mi NW 26.5 mph 35.7 mph N/A   Overcast
9:16 PM 39.2 °F 27.8 °F 24.8 °F 56% 29.93 in 10.0 mi NW 27.6 mph 32.2 mph N/A   Overcast
9:36 PM 39.2 °F 28.7 °F 24.8 °F 56% 29.93 in 10.0 mi NW 23.0 mph 31.1 mph N/A   Overcast
9:56 PM 39.2 °F 28.3 °F 24.8 °F 56% 29.93 in 10.0 mi NW 25.3 mph 33.4 mph N/A   Overcast
10:16 PM 39.2 °F 28.3 °F 23.0 °F 52% 29.93 in 10.0 mi NW 25.3 mph 33.4 mph N/A   Overcast
10:36 PM 39.2 °F 27.4 °F 24.8 °F 56% 29.93 in 10.0 mi NW 29.9 mph 40.3 mph N/A   Overcast
10:56 PM 39.2 °F 28.3 °F 23.0 °F 52% 29.94 in 10.0 mi NW 25.3 mph 36.8 mph N/A   Overcast
11:16 PM 39.2 °F 27.8 °F 23.0 °F 52% 29.94 in 10.0 mi NW 27.6 mph 34.5 mph N/A   Overcast
11:36 PM 39.2 °F 27.8 °F 24.8 °F 56% 29.94 in 10.0 mi NW 27.6 mph 38.0 mph N/A   Overcast
11:56 PM 39.2 °F 27.8 °F 24.8 °F 56% 29.95 in 10.0 mi NW 27.6 mph 38.0 mph N/A   Overcast